Regional Weather Roundup
Issued by NWS

Home | Current Version | Previous Version | Text Only | Print | Product List | Glossary On
Versions: 1 2 3 4 5 6 7 8 9 10 11 12 13 14 15 16 17 18 19 20 21 22 23 24 25 26 27 28 29 30 31 32 33 34 35 36 37 38 39 40 41 42 43 44 45 46 47 48 49 50
000
ASUS46 KLOX 260312
RWRCA

SOUTHERN CALIFORNIA WEATHER ROUNDUP
NATIONAL WEATHER SERVICE OXNARD CALIFORNIA
700 PM PST THU DEC 25 2014

NOTE: "FAIR" INDICATES FEW OR NO CLOUDS BELOW 12,000 FEET WITH NO
SIGNIFICANT WEATHER AND/OR OBSTRUCTIONS TO VISIBILITY.

  -  STATIONS PRECEEDED BY AN ASTERISK (*) ARE NOT NWS OR FAA
     STATIONS AND ARE NOT SUBJECT TO NWS AND FAA QUALITY CONTROL.

CAZ041-042-087-260400-
LA AND ORANGE COUNTY COASTAL AREAS


CITY           SKY/WX    TMP DP  RH WIND       PRES   REMARKS
L.A. DOWNTOWN  CLEAR     55  19  24 NW10G17   29.87R
L.A. AIRPORT   CLEAR     55  19  24 NW18G28   29.89R
LONG BEACH     CLEAR     56  21  25 NW16      29.87R

CITY           SKY/WX    TMP DP  RH WIND       PRES   REMARKS
AVALON           N/A     59 N/A N/A MISG        N/A
FULLERTON      CLEAR     58  18  21 VRB5      29.86R
*GETTY CENTER    N/A     50  18  27 N15G29      N/A
HAWTHORNE      CLEAR     57  19  22 NW9G20    29.89R
*LOS ALAMITOS  FAIR      56  22  26 NW12      29.87R
*REDONDO BEACH   N/A     56  20  25 NW3       29.87S
SANTA ANA      CLEAR     61  17  18 CALM      29.87R
STA MONICA APT CLEAR     56  18  22 N9G21     29.90S
TORRANCE       CLEAR     57  21  24 NW17      29.89R
*UCLA            N/A     54  18  24 NW12      29.89R

$$

CAZ547-548-048-260400-
LA COUNTY VALLEYS AND INLAND EMPIRE


CITY           SKY/WX    TMP DP  RH WIND       PRES   REMARKS
BURBANK        CLEAR     53  20  27 NW12G18   29.91R
VAN NUYS       CLEAR     51  21  30 CALM      29.93R

CITY           SKY/WX    TMP DP  RH WIND       PRES   REMARKS
CORONA AIRPORT CLEAR     56  16  21 E5G17     29.88R
*CHATSWORTH      N/A     52  21  29 N9        29.92R
CHINO          CLEAR     56  15  20 E7        29.87R
*CLAREMONT       N/A     47  19  33 NE2         N/A
MARCH AFB      CLEAR     49  21  33 NW10      29.87R
*NORTHRIDGE      N/A     50  18  27 NW7G13      N/A
ONTARIO        CLEAR     56   9  15 N10G20    29.86R
*PASADENA        N/A     54  23  30 CALM        N/A
RIVERSIDE      CLEAR     55  14  19 NE7       29.88R
SAN BERNARDINO CLEAR    N/A N/A N/A N8        29.88R
*SAN GABRIEL     N/A     56  20  25 CALM      29.85R
*WHITEMAN AP   NOT AVBL
*WOODLAND HILL   N/A     52  16  24 SE3         N/A

$$

CAZ054-055-260400-
LA AND SAN BERNARDINO COUNTY MOUNTAINS


CITY           SKY/WX    TMP DP  RH WIND       PRES   REMARKS
*ACTON           N/A     39  19  45 NE5         N/A
*BIG BEAR AIRP CLEAR     27   3  36 E5        29.86S WCI  21
*BIG PINES       N/A     22   9  57 CALM        N/A
MT WILSON NWS    N/A     28  16  59 NW5         N/A  WCI  23
SANDBERG       PTCLDY    32  25  75 N20G31    29.93R WCI  20

$$

CAZ028-029-059-060-099-260400-
ANTELOPE VALLEY AND SURROUNDING AREAS


CITY           SKY/WX    TMP DP  RH WIND       PRES   REMARKS
LANCASTER      CLEAR     37  25  61 W9        29.95R WCI  30
PALMDALE       CLEAR     40  23  50 NW12      29.95R WCI  33

CITY           SKY/WX    TMP DP  RH WIND       PRES   REMARKS
29 PALMS       CLEAR     45   9  23 NW14      29.96R
BARSTOW/DAGGET CLEAR     45  10  24 N8        29.93R
BISHOP         PTCLDY    30  13  49 N6        30.02R WCI  24
CHINA LAKE     CLEAR     42  15  33 N10       29.95R
EDWARDS AFB    CLEAR     52  19  28 NW8       29.87F
MOJAVE         FAIR      39  23  52 W7        29.94R WCI  34
NEEDLES        CLEAR     53   7  15 N12       29.85R
VICTORVILLE      N/A     39  25  56 CALM      29.93R

$$

CAZ039-040-260400-
VENTURA AND SANTA BARBARA COUNTY COAST


CITY           SKY/WX    TMP DP  RH WIND       PRES   REMARKS
CAMARILLO      CLEAR     52  24  33 E10       29.92R
OXNARD AIRPORT CLEAR     54  29  38 E6        29.92R
*POINT MUGU    CLEAR     55  26  32 NE8       29.92R
SBA APT/GOLETA CLEAR     53  24  32 N3        29.94R
*SANTA BARBARA   N/A     56  19  23 CALM      30.02R
*VENTURA         N/A     51  27  38 NW5       29.96R

$$

CAZ044-045-260400-
VENTURA COUNTY VALLEYS


CITY           SKY/WX    TMP DP  RH WIND       PRES   REMARKS
*SIMI VALLEY     N/A     50  22  33 N3        29.93R
*OJAI            N/A     43  31  61 CALM      29.92R
*FILLMORE        N/A     47  29  50 CALM      29.85R

$$

CAZ053-260400-
VENTURA COUNTY MOUNTAINS


CITY           SKY/WX    TMP DP  RH WIND       PRES   REMARKS
*LOCKWOOD VLY    N/A     27  12  54 MISG        N/A
*ROSE VALLEY     N/A     41  10  28 MISG        N/A

$$

CAZ034-035-036-260400-
CENTRAL COAST AND SANTA YNEZ VALLEY


CITY           SKY/WX    TMP DP  RH WIND       PRES   REMARKS
SAN LUIS OBISP CLEAR     52  31  44 N3        30.02R
SANTA MARIA    CLEAR     53  29  39 N10       30.02R

CITY           SKY/WX    TMP DP  RH WIND       PRES   REMARKS
*CAL POLY SLO    N/A     52  34  50 NW1G20      N/A
*LOMPOC        CLEAR     52  28  40 CALM      30.01R
*PISMO BEACH     N/A     54  33  43 CALM      30.03R
*SANTA YNEZ    FAIR      48  27  43 N7        29.98R

$$

CAZ037-038-051-260400-
SAN LUIS OBISPO COUNTY INTERIOR AND CUYAMA VALLEY


CITY           SKY/WX    TMP DP  RH WIND       PRES   REMARKS
*CUYAMA          N/A     41  30  65 CALM      30.02R
PASO ROBLES    CLEAR     46  34  62 N5        30.02R

$$

CAZ032-033-061-260400-
SOUTHERN DESERTS


CITY           SKY/WX    TMP DP  RH WIND       PRES   REMARKS
BLYTHE         CLEAR     56  10  16 NW20      29.85R
IMPERIAL       CLOUDY    58  13  17 N3        29.84R
PALM SPRINGS   CLEAR     59   6  12 VRB3      29.89R
THERMAL        CLEAR     58   9  14 NW13      29.85R

$$

ELSEWHERE ACROSS THE WESTERN UNITED STATES AND MEXICO


CITY           SKY/WX    TMP DP  RH WIND       PRES   REMARKS
DENVER, CO     LGT SNOW  24  22  91 N10       29.78R VSB 1   WCI  14
GRAND CANYON,  PTCLDY    21   8  57 VRB3      29.71R
HONOLULU, HI   MOSUNNY   77  63  61 NW15      29.74R
KAHULUI, MAUI  PTCLDY    79  63  57 S7        29.75R
LAKE TAHOE, CA CLOUDY    27  14  58 N12       30.00R WCI  17
LAS VEGAS, NV  PTCLDY    47  12  24 NW10G22   29.83R
MAMMOTH LAKES, FAIR      19  10  68 W9        29.99R WCI   9
MEXICO CITY, M PTCLDY    55  43  62 SE12      30.30R
PHOENIX, AZ    CLEAR     52  23  32 SW8       29.76R
PORTLAND, OR   LGT RAIN  45  43  93 CALM      30.27S
RENO, NV       MOCLDY    34  20  56 N7        30.07R WCI  28
SALT LAKE CITY CLOUDY    29  24  82 N17       29.80R WCI  17
SAN DIEGO, CA  CLEAR     59  39  47 CALM      29.88R
SAN FRANCISCO, CLEAR     53  39  59 NW9       30.11R
SAN JOSE, CA   CLEAR     49  30  48 W6        30.09R
SEATTLE, WA    PTCLDY    39  36  89 SW3       30.25R
TIJUANA, MEX   CLEAR     54  37  54 CALM      29.89R

$$

STATION/POSITION TIME  TEMP    WIND        PRES    VSBY  WAVE
                       AIR SEA DIR/SP/G                  HT/PER
                 (UTC) (F)     (DEG/KT/KT) (MB)    (MI)  (FT/S)
POINT ARGUELLO B NOT AVBL
WEST SANTA BARBA 0300   57 61   20/ 16/ 19 1014.8R        12/13
POINT CONCEPTION NOT AVBL
EAST SANTA BARBA NOT AVBL
SANTA MONICA BAY 0300   61 63  330/  8/ 10 1012.8R         5/15



USA.gov is the U.S. government's official web portal to all federal, state and local government web resources and services.